[[{"header":{"parameterUnit":"m.s-1","parameterCategory":2,"la1":30.2991,"la2":30.254,"lo1":-89.0895,"lo2":-89.0444,"dy":0.0017,"dx":0.0017,"nx":28,"ny":28,"refTime":"2023-07-25T21:00:00:Z","depth":"0","parameterNumber":2,"parameterNumberName":"U-component_of_CURRENTS"},"data":[0,0,0,0,0,0,0,0,0,0,0,0,0,0,0,0,0,0,0,0,0,0,0,0,0,0,0,0,0,0,0,0,0,0,0,0,0,0,0,0,0,0,0,0,0,0,0,0,0,0,0,0,0,0,0,0,0,0,0.2812,0.2812,0,0.2814,0.2813,0.2813,0.2801,0.2801,0.2801,0.2801,0.2742,0.274,0.2739,0,0,0,0,0,0,0,0,0,0,0,0,0,0.2785,0.2785,0.2812,0.2812,0.2812,0.2814,0.2813,0.2813,0.2801,0.2801,0.2801,0.2801,0.2742,0.2741,0.2739,0,0,0,0,0,0,0,0,0,0,0,0,0,0.2789,0.2785,0.2812,0.2809,0.2809,0.2814,0.2813,0.2813,0.2801,0.2801,0.2801,0.2801,0.2743,0.2741,0.2738,0.2724,0,0,0.2731,0.273,0,0,0,0,0,0,0,0,0.2789,0.2789,0.2809,0.2809,0.281,0.281,0.2783,0.2781,0.2801,0.28,0.2801,0.2801,0.2762,0.2758,0.2753,0.2721,0.2719,0.2731,0.273,0.2729,0.2728,0,0,0,0,0,0,0,0.2789,0.2789,0.2808,0.281,0.281,0.2804,0.2804,0.2782,0.2776,0.28,0.28,0.2806,0.2761,0.2756,0.2752,0.2718,0.2731,0.2729,0.2728,0.2727,0.2752,0.2754,0,0,0,0,0,0,0.2797,0.2789,0.2808,0.2809,0.2803,0.2805,0.2805,0.2807,0.2778,0.2775,0.2806,0.2806,0.276,0.2755,0.275,0.2773,0.2729,0.2726,0.2725,0.275,0.2753,0.2755,0,0,0,0,0,0,0.2796,0.2798,0.2808,0.2802,0.2804,0.2806,0.2808,0.2807,0.2809,0.2784,0.278,0.2811,0.276,0.2753,0.2758,0.2768,0.2725,0.2723,0.2748,0.2751,0.2754,0.2791,0,0,0,0,0,0,0.2795,0.2798,0.2796,0.2803,0.2805,0.2811,0.2808,0.2807,0.2815,0.2814,0.2786,0.2781,0.2759,0.2762,0.2755,0.2764,0.2721,0.2745,0.2749,0.2753,0.2787,0.2795,0.2802,0,0,0,0,0,0.2794,0.2786,0.2795,0.2798,0.2803,0.2811,0.2811,0.281,0.2815,0.2812,0.2816,0.2782,0.2782,0.2761,0.2753,0.2762,0.2743,0.2748,0.2753,0.2784,0.2794,0.2802,0,0,0,0,0,0,0.2763,0.2785,0.2795,0.2791,0.2805,0.281,0.2804,0.2816,0.2816,0.2815,0.2799,0.2793,0.2809,0.2788,0.2765,0.2788,0.2761,0.2764,0.2787,0.2796,0.2803,0.2805,0.2719,0,0,0,0,0,0.2761,0.2763,0.2786,0.2782,0.2789,0.2802,0.2804,0.2811,0.2817,0.2817,0.2806,0.2806,0.2821,0.281,0.2812,0.2808,0.283,0.2816,0.2823,0.2829,0.2831,0.2888,0.29,0.2771,0.2771,0.277,0,0,0.2746,0.276,0.2759,0.2777,0.2783,0.2796,0.2801,0.2807,0.2822,0.2809,0.2815,0.2829,0.2832,0.2844,0.2847,0.2823,0.2886,0.2835,0.284,0.2838,0.2894,0.2906,0.2917,0.2774,0.2773,0.2773,0,0,0.2726,0.2733,0.2735,0.2748,0.277,0.2785,0.2793,0.2809,0.2816,0.2831,0.2848,0.2876,0.2863,0.2883,0.289,0.2939,0.2933,0.2938,0.2956,0.3011,0.3022,0.3031,0.3103,0.3118,0.2928,0.2928,0.2928,0,0.2711,0.2722,0.2735,0.2745,0.2759,0.2786,0.2799,0.2811,0.2829,0.2847,0.2835,0.289,0.2885,0.2935,0.2957,0.2952,0.2989,0.2915,0.3019,0.3029,0.3038,0.3109,0.3125,0.2931,0.293,0.293,0.293,0,0.2704,0.2712,0.2711,0.2742,0.2756,0.2767,0.2799,0.2816,0.2834,0.2858,0.2908,0.2923,0.2956,0.2968,0.297,0.304,0.3052,0.3031,0.299,0.3053,0.3124,0.3141,0.2934,0.2933,0.2932,0.2932,0,0,0.2675,0.2705,0.2703,0.2717,0.2758,0.2767,0.2801,0.2846,0.2879,0.2899,0.2947,0.2988,0.3009,0.3023,0.3041,0.3083,0.3187,0.3081,0.3082,0.3141,0.3333,0.3396,0.342,0.3183,0.3185,0.3187,0.3366,0,0.2671,0.2679,0.2708,0.2726,0.2735,0.2778,0.2812,0.2854,0.2892,0.2941,0.2983,0.3033,0.3026,0.3054,0.3098,0.3169,0.3229,0.3142,0.3272,0.3277,0.3316,0.344,0.3421,0.3583,0.3382,0.3385,0.3387,0,0.2662,0.267,0.2679,0.2724,0.2735,0.2756,0.282,0.2858,0.294,0.2974,0.3033,0.307,0.3155,0.313,0.3276,0.3223,0.3285,0.3331,0.3338,0.3392,0.3371,0.3485,0.362,0.342,0.3412,0.341,0.3408,0,0.2622,0.2654,0.2659,0.2669,0.2724,0.2743,0.2785,0.2861,0.29,0.3002,0.3051,0.3141,0.3199,0.3283,0.3381,0.3337,0.3546,0.3492,0.3614,0.3619,0.3626,0.3628,0.3571,0.3604,0.3603,0.3603,0.3602,0,0.2605,0.2612,0.2635,0.2632,0.2653,0.2711,0.2753,0.2814,0.2905,0.2976,0.3064,0.3142,0.3239,0.3359,0.3427,0.3599,0.359,0.3659,0.3683,0.3643,0.3644,0.3487,0.3376,0.361,0.3608,0.3607,0.3606,0,0.2565,0.2579,0.2583,0.262,0.2627,0.2641,0.271,0.2757,0.2862,0.296,0.2998,0.3158,0.3344,0.3461,0.3625,0.3678,0.372,0.3871,0.3833,0.385,0.3762,0.3657,0.3585,0.3488,0.4042,0.4044,0.4047,0,0.2564,0.2548,0.2546,0.2538,0.2552,0.2578,0.261,0.271,0.2772,0.2976,0.3031,0.3237,0.339,0.3683,0.3845,0.4034,0.3823,0.4092,0.4001,0.3793,0.3692,0.3498,0.3404,0.4034,0.4036,0.4038,0.4039,0,0.255,0.2527,0.2518,0.2487,0.2495,0.2511,0.2568,0.2604,0.2762,0.288,0.3066,0.3207,0.3546,0.3744,0.4011,0.4122,0.3884,0.4134,0.392,0.3703,0.3487,0.3393,0.3876,0.4054,0.4053,0.4052,0.4051,0.405,0.2545,0.2514,0.2475,0.2449,0.244,0.2447,0.247,0.2567,0.2671,0.287,0.3032,0.325,0.3556,0.3954,0.4063,0.4139,0.4016,0.4021,0.3925,0.3757,0.3607,0.4145,0.4339,0.4339,0.434,0.434,0.434,0,0.2564,0.2497,0.2451,0.2407,0.238,0.2393,0.2449,0.2491,0.2614,0.2816,0.2999,0.3276,0.3544,0.3774,0.3997,0.3905,0.3769,0.3753,0.3424,0.3353,0.3856,0.3795,0.3877,0.3877,0.3878,0.3878,0.3878,0.3878,0.2567,0.2508,0.2456,0.2367,0.2335,0.2328,0.2358,0.2425,0.2539,0.2708,0.2848,0.2989,0.3215,0.3464,0.3511,0.3517,0.3181,0.3125,0.2975,0.326,0.3273,0.3285,0.3198,0.3153,0.3152,0.241,0.2403,0.2399]},{"header":{"parameterUnit":"m.s-1","parameterCategory":2,"la1":30.2991,"la2":30.254,"lo1":-89.0895,"lo2":-89.0444,"dy":0.0017,"dx":0.0017,"nx":28,"ny":28,"refTime":"2023-07-25T21:00:00:Z","depth":"0","parameterNumber":3,"parameterNumberName":"V-component_of_CURRENTS"},"data":[0,0,0,0,0,0,0,0,0,0,0,0,0,0,0,0,0,0,0,0,0,0,0,0,0,0,0,0,0,0,0,0,0,0,0,0,0,0,0,0,0,0,0,0,0,0,0,0,0,0,0,0,0,0,0,0,0,0,-0.0364,-0.0365,0,-0.0402,-0.0402,-0.0403,-0.0435,-0.0436,-0.0436,-0.0436,-0.0557,-0.056,-0.0563,0,0,0,0,0,0,0,0,0,0,0,0,0,-0.034,-0.034,-0.0364,-0.0365,-0.0365,-0.0402,-0.0402,-0.0403,-0.0435,-0.0436,-0.0436,-0.0437,-0.0556,-0.0559,-0.0563,0,0,0,0,0,0,0,0,0,0,0,0,0,-0.0361,-0.034,-0.0364,-0.0386,-0.0388,-0.0402,-0.0402,-0.0403,-0.0435,-0.0436,-0.0436,-0.0437,-0.0555,-0.0559,-0.0563,-0.0578,0,0,-0.0576,-0.0578,0,0,0,0,0,0,0,0,-0.0359,-0.0361,-0.0382,-0.0384,-0.0387,-0.0415,-0.0438,-0.0466,-0.0435,-0.0417,-0.0436,-0.0437,-0.0517,-0.0524,-0.0528,-0.0583,-0.0589,-0.0577,-0.0579,-0.0581,-0.0582,0,0,0,0,0,0,0,-0.0358,-0.036,-0.0379,-0.0383,-0.0386,-0.04,-0.0404,-0.0443,-0.0465,-0.0419,-0.0421,-0.0426,-0.0519,-0.0524,-0.0532,-0.059,-0.0577,-0.058,-0.0583,-0.0585,-0.0669,-0.0668,0,0,0,0,0,0,-0.0352,-0.0359,-0.0378,-0.038,-0.0375,-0.04,-0.0404,-0.0405,-0.0462,-0.0471,-0.0425,-0.0427,-0.0517,-0.0527,-0.0536,-0.0552,-0.0581,-0.0585,-0.0588,-0.0669,-0.0669,-0.0668,0,0,0,0,0,0,-0.0351,-0.0353,-0.0376,-0.0371,-0.0375,-0.04,-0.0401,-0.0405,-0.0413,-0.0466,-0.0477,-0.0428,-0.0517,-0.053,-0.0557,-0.0557,-0.0587,-0.0591,-0.0669,-0.0669,-0.0668,-0.0586,0,0,0,0,0,0,-0.035,-0.0353,-0.0349,-0.037,-0.0375,-0.0379,-0.04,-0.0406,-0.0415,-0.0417,-0.0472,-0.0484,-0.0519,-0.055,-0.0561,-0.0563,-0.0594,-0.067,-0.0669,-0.0669,-0.0589,-0.0583,-0.0578,0,0,0,0,0,-0.0349,-0.0344,-0.0349,-0.0351,-0.037,-0.0378,-0.0381,-0.0402,-0.0414,-0.0412,-0.0441,-0.0482,-0.0555,-0.0553,-0.0566,-0.057,-0.067,-0.0669,-0.0669,-0.0592,-0.0584,-0.0578,0,0,0,0,0,0,-0.0335,-0.0347,-0.0353,-0.0352,-0.0361,-0.0384,-0.0385,-0.0398,-0.0418,-0.0424,-0.0473,-0.0486,-0.0509,-0.055,-0.0546,-0.0592,-0.0622,-0.0624,-0.0559,-0.0553,-0.0547,-0.0536,-0.0598,0,0,0,0,0,-0.0328,-0.0324,-0.034,-0.0338,-0.0342,-0.0362,-0.0368,-0.038,-0.0402,-0.0411,-0.0445,-0.0485,-0.0516,-0.0541,-0.0573,-0.0599,-0.0638,-0.0612,-0.0606,-0.0601,-0.0601,-0.0655,-0.0654,-0.0666,-0.0666,-0.0666,0,0,-0.0321,-0.0328,-0.0326,-0.0334,-0.0344,-0.034,-0.0367,-0.0373,-0.0371,-0.0423,-0.0432,-0.0463,-0.0515,-0.0536,-0.0552,-0.0572,-0.0613,-0.06,-0.0595,-0.0598,-0.0655,-0.0653,-0.0653,-0.0665,-0.0665,-0.0665,0,0,-0.0302,-0.0311,-0.03,-0.0302,-0.0312,-0.0326,-0.0325,-0.0343,-0.0353,-0.0362,-0.0396,-0.0423,-0.0472,-0.0504,-0.0529,-0.0514,-0.0574,-0.053,-0.0501,-0.0553,-0.0553,-0.0553,-0.0579,-0.0582,-0.0535,-0.0535,-0.0535,0,-0.0293,-0.0281,-0.0298,-0.0286,-0.0281,-0.0315,-0.0298,-0.0315,-0.0337,-0.0344,-0.0357,-0.0415,-0.0457,-0.0487,-0.0478,-0.0502,-0.0533,-0.052,-0.0545,-0.0546,-0.0548,-0.0574,-0.0579,-0.0531,-0.0531,-0.0532,-0.0532,0,-0.0265,-0.0253,-0.0247,-0.0241,-0.0237,-0.0232,-0.025,-0.0256,-0.0273,-0.0291,-0.0315,-0.0362,-0.0401,-0.0417,-0.0442,-0.0473,-0.049,-0.0523,-0.0559,-0.0541,-0.0571,-0.0577,-0.0525,-0.0527,-0.0528,-0.0529,0,0,-0.0246,-0.0231,-0.0225,-0.0207,-0.021,-0.0204,-0.0203,-0.0211,-0.0211,-0.0244,-0.0246,-0.0297,-0.0328,-0.0358,-0.0399,-0.0442,-0.0469,-0.0482,-0.0486,-0.05,-0.0567,-0.0533,-0.0537,-0.0509,-0.051,-0.0511,-0.0575,0,-0.0217,-0.0179,-0.018,-0.0141,-0.0123,-0.014,-0.013,-0.0143,-0.0166,-0.018,-0.024,-0.026,-0.0307,-0.0319,-0.0371,-0.0442,-0.0486,-0.0448,-0.0589,-0.0593,-0.056,-0.0543,-0.0424,-0.0467,-0.0581,-0.0582,-0.0583,0,-0.0181,-0.0162,-0.0115,-0.0083,-0.0075,-0.0059,-0.0048,-0.0044,-0.0081,-0.0101,-0.0145,-0.0192,-0.0251,-0.0294,-0.0419,-0.0392,-0.0473,-0.0532,-0.0537,-0.0542,-0.0571,-0.051,-0.0475,-0.062,-0.0593,-0.0592,-0.0592,0,-0.0146,-0.011,-0.007,-0.0058,-0.0035,-0.0015,-0.0005,-0.0018,-0.0006,-0.0053,-0.0051,-0.0143,-0.0172,-0.0293,-0.0402,-0.0421,-0.0532,-0.0582,-0.0628,-0.0626,-0.0571,-0.0562,-0.0687,-0.068,-0.068,-0.068,-0.0679,0,-0.0106,-0.0072,-0.005,-0.0026,0.0023,0.003,0.0071,0.006,0.0059,0.0086,-0.0006,-0.0001,-0.0174,-0.0252,-0.038,-0.0501,-0.0523,-0.0615,-0.0643,-0.0535,-0.0523,-0.0685,-0.0791,-0.0682,-0.0681,-0.0681,-0.068,0,-0.0064,-0.0051,-0.0005,0.0028,0.0043,0.0082,0.0132,0.0165,0.0148,0.0181,0.0175,0.0101,0.0011,-0.0145,-0.0325,-0.045,-0.0637,-0.0625,-0.0467,-0.0475,-0.0666,-0.0771,-0.0908,-0.096,-0.0702,-0.0702,-0.0701,0,-0.0039,-0.001,0.0037,0.0075,0.0095,0.0148,0.0197,0.0206,0.0246,0.0259,0.0288,0.0219,0.0206,-0.0028,-0.023,-0.0432,-0.0597,-0.0506,-0.0533,-0.0653,-0.0792,-0.0843,-0.0882,-0.0422,-0.0419,-0.0417,-0.0415,0,0.0012,0.0028,0.0067,0.0137,0.0196,0.0263,0.033,0.0379,0.0406,0.0463,0.052,0.0517,0.0322,0.0207,-0.007,-0.0237,-0.0563,-0.047,-0.0643,-0.062,-0.0636,-0.0704,-0.0399,-0.0396,-0.0398,-0.04,-0.0401,-0.0401,0.005,0.0092,0.0146,0.0215,0.0286,0.0389,0.0488,0.0571,0.0687,0.0847,0.0768,0.0897,0.0628,0.0295,0.0018,-0.0375,-0.0445,-0.05,-0.0626,-0.0673,-0.0699,-0.0337,-0.0341,-0.0343,-0.0344,-0.0345,-0.0346,0,0.0104,0.0157,0.0226,0.033,0.0441,0.0457,0.0596,0.0738,0.0934,0.1109,0.1223,0.1244,0.0926,0.0509,-0.0046,-0.0427,-0.0569,-0.0663,-0.0719,-0.0763,-0.0469,-0.043,-0.0393,-0.0393,-0.0392,-0.0392,-0.0392,-0.0392,0.0145,0.0226,0.0264,0.0453,0.0544,0.0744,0.0854,0.106,0.1241,0.1575,0.1757,0.179,0.1447,0.035,-0.0434,-0.0652,-0.0924,-0.0955,-0.1167,-0.098,-0.0975,-0.097,-0.0958,-0.1032,-0.1033,-0.133,-0.1334,-0.1337]}],[{"header":{"parameterUnit":"m.s-1","parameterCategory":2,"la1":30.2991,"la2":30.254,"lo1":-89.0895,"lo2":-89.0444,"dy":0.0017,"dx":0.0017,"nx":28,"ny":28,"refTime":"2023-07-25T21:00:00:Z","depth":"2","parameterNumber":2,"parameterNumberName":"U-component_of_CURRENTS"},"data":[0,0,0,0,0,0,0,0,0,0,0,0,0,0,0,0,0,0,0,0,0,0,0,0,0,0,0,0,0,0,0,0,0,0,0,0,0,0,0,0,0,0,0,0,0,0,0,0,0,0,0,0,0,0,0,0,0,0,0.2344,0.2345,0,0.2427,0.2428,0.2428,0.2456,0.2456,0.2455,0.2455,0.2507,0.2508,0.251,0,0,0,0,0,0,0,0,0,0,0,0,0,0.2254,0.2255,0.2344,0.2345,0.2347,0.2427,0.2428,0.2429,0.2456,0.2456,0.2455,0.2455,0.2506,0.2508,0.251,0,0,0,0,0,0,0,0,0,0,0,0,0,0.2309,0.2255,0.2344,0.2371,0.2374,0.2426,0.2428,0.2429,0.2456,0.2456,0.2455,0.2455,0.2506,0.2508,0.251,0.2532,0,0,0.2518,0.2519,0,0,0,0,0,0,0,0,0.2306,0.2312,0.2366,0.2369,0.2373,0.2432,0.2415,0.2462,0.2456,0.2423,0.2455,0.2455,0.248,0.2485,0.2499,0.2534,0.2536,0.2518,0.2519,0.252,0.2521,0,0,0,0,0,0,0,0.2302,0.2309,0.2375,0.2367,0.2371,0.2394,0.2401,0.2424,0.2451,0.2426,0.2429,0.244,0.2482,0.2497,0.2501,0.2537,0.2518,0.252,0.2521,0.2522,0.2635,0.2637,0,0,0,0,0,0,0.2293,0.2305,0.2373,0.2378,0.2339,0.2395,0.2403,0.2412,0.2452,0.2458,0.244,0.2441,0.2493,0.2498,0.2503,0.2573,0.252,0.2523,0.2524,0.2634,0.2636,0.2637,0,0,0,0,0,0,0.229,0.2298,0.237,0.2345,0.2355,0.2397,0.2407,0.2414,0.2436,0.2463,0.2468,0.2456,0.2493,0.2499,0.2542,0.2573,0.2524,0.2526,0.2632,0.2634,0.2636,0.2685,0,0,0,0,0,0,0.2287,0.2296,0.2305,0.2344,0.2357,0.2407,0.2408,0.2416,0.2444,0.2446,0.2478,0.2482,0.2493,0.2539,0.2545,0.2575,0.2528,0.263,0.2633,0.2636,0.2681,0.2689,0.2695,0,0,0,0,0,0.2284,0.2289,0.2305,0.2313,0.2365,0.2408,0.2417,0.2444,0.2445,0.2461,0.2489,0.2482,0.2561,0.2542,0.2549,0.2581,0.2628,0.2632,0.2636,0.2678,0.2687,0.2695,0,0,0,0,0,0,0.2251,0.2294,0.2311,0.233,0.2372,0.2413,0.2427,0.2449,0.2484,0.2482,0.2503,0.2511,0.2562,0.2564,0.2542,0.2622,0.2593,0.2598,0.2623,0.2632,0.2639,0.2624,0.253,0,0,0,0,0,0.225,0.2265,0.2315,0.233,0.2348,0.239,0.2412,0.2434,0.2468,0.2483,0.2503,0.2533,0.2581,0.2599,0.263,0.2671,0.2703,0.2696,0.2702,0.2708,0.2701,0.2812,0.2829,0.2649,0.2649,0.2649,0,0,0.224,0.2267,0.2275,0.2325,0.2353,0.2385,0.2401,0.2434,0.2467,0.2483,0.252,0.2556,0.2598,0.2652,0.2674,0.2658,0.2774,0.2713,0.2717,0.2707,0.2818,0.2836,0.2851,0.2651,0.2651,0.2651,0,0,0.2226,0.2253,0.2263,0.2299,0.2349,0.2381,0.2392,0.2438,0.2466,0.2514,0.2544,0.2601,0.2644,0.2696,0.2728,0.2789,0.2809,0.2794,0.2817,0.2925,0.2941,0.2956,0.3011,0.3029,0.2796,0.2796,0.2796,0,0.2216,0.2238,0.2274,0.2299,0.2329,0.2378,0.2404,0.2446,0.25,0.2541,0.2526,0.2648,0.2671,0.278,0.2793,0.2806,0.2852,0.2783,0.2936,0.2951,0.2965,0.3017,0.3038,0.2799,0.2798,0.2798,0.2798,0,0.2214,0.2239,0.2247,0.2296,0.2334,0.2363,0.2427,0.2471,0.2504,0.2555,0.2654,0.2704,0.2781,0.2802,0.281,0.2928,0.2923,0.2936,0.2915,0.2986,0.3036,0.3057,0.2803,0.2802,0.2801,0.28,0,0,0.2177,0.2234,0.224,0.2264,0.2336,0.2366,0.2434,0.2522,0.2579,0.2641,0.2726,0.2812,0.2848,0.2885,0.2924,0.2999,0.3124,0.2998,0.3003,0.3051,0.3339,0.3169,0.3174,0.3176,0.318,0.3184,0.3332,0,0.217,0.2201,0.2242,0.2285,0.231,0.2386,0.2447,0.2536,0.2609,0.2698,0.2797,0.2876,0.2882,0.2921,0.3011,0.3101,0.3181,0.308,0.3263,0.3267,0.3108,0.3193,0.2861,0.295,0.3352,0.3355,0.3357,0,0.216,0.2186,0.2215,0.2291,0.231,0.2344,0.2462,0.2526,0.2677,0.2737,0.2856,0.2925,0.3059,0.3038,0.3252,0.3192,0.3262,0.332,0.3328,0.3162,0.3134,0.2947,0.2972,0.3391,0.3388,0.3386,0.3384,0,0.2114,0.2172,0.2191,0.2215,0.2305,0.2342,0.2401,0.2535,0.2606,0.2761,0.2826,0.3003,0.3086,0.3229,0.3339,0.3316,0.3552,0.3545,0.3463,0.3451,0.3194,0.3151,0.3698,0.3697,0.3697,0.3697,0.3696,0,0.2093,0.2113,0.2166,0.2178,0.2215,0.2299,0.2368,0.2459,0.26,0.2696,0.2834,0.2939,0.3139,0.329,0.3386,0.3478,0.361,0.3472,0.3489,0.3197,0.3155,0.3552,0.3533,0.3702,0.3701,0.37,0.3699,0,0.2038,0.2076,0.2098,0.2169,0.2187,0.2213,0.2317,0.2385,0.2518,0.265,0.2699,0.2924,0.3114,0.3287,0.3516,0.3509,0.3627,0.3626,0.3233,0.3197,0.3438,0.3421,0.3551,0.3547,0.3543,0.354,0.3537,0,0.2012,0.201,0.2056,0.2061,0.2085,0.2134,0.218,0.2321,0.2407,0.2638,0.2708,0.2918,0.305,0.3291,0.3276,0.3382,0.3592,0.3177,0.3054,0.3426,0.343,0.3418,0.3406,0.2747,0.2738,0.273,0.2725,0,0.1947,0.1957,0.1967,0.1985,0.201,0.2048,0.213,0.2185,0.2377,0.2484,0.2663,0.2773,0.291,0.2849,0.2937,0.2972,0.3121,0.3025,0.358,0.2807,0.2671,0.2674,0.2688,0.2659,0.2666,0.2671,0.2674,0.2677,0.1881,0.1869,0.1886,0.1904,0.193,0.1971,0.2,0.2099,0.2203,0.2318,0.2487,0.2536,0.2485,0.2415,0.2425,0.2469,0.2661,0.263,0.2652,0.2682,0.2534,0.2396,0.2304,0.2308,0.2312,0.2315,0.2318,0,0.1802,0.1811,0.1814,0.184,0.1859,0.1909,0.1982,0.196,0.2038,0.2107,0.2177,0.1923,0.1858,0.1974,0.1845,0.1833,0.182,0.1893,0.1856,0.1917,0.1973,0.1791,0.1364,0.1362,0.136,0.1359,0,0,0.1761,0.1745,0.1762,0.1775,0.1805,0.1816,0.185,0.1761,0.1765,0.1702,0.1694,0.1654,0.1778,0.1448,0.1418,0.142,0.1678,0.1384,0.2127,0.2136,0.219,0.2352,0.2132,0,0,0,0,0]},{"header":{"parameterUnit":"m.s-1","parameterCategory":2,"la1":30.2991,"la2":30.254,"lo1":-89.0895,"lo2":-89.0444,"dy":0.0017,"dx":0.0017,"nx":28,"ny":28,"refTime":"2023-07-25T21:00:00:Z","depth":"2","parameterNumber":3,"parameterNumberName":"V-component_of_CURRENTS"},"data":[0,0,0,0,0,0,0,0,0,0,0,0,0,0,0,0,0,0,0,0,0,0,0,0,0,0,0,0,0,0,0,0,0,0,0,0,0,0,0,0,0,0,0,0,0,0,0,0,0,0,0,0,0,0,0,0,0,0,0.0803,0.0802,0,0.0713,0.0712,0.071,0.0606,0.0605,0.0603,0.0602,0.0416,0.0413,0.0409,0,0,0,0,0,0,0,0,0,0,0,0,0,0.0859,0.0858,0.0803,0.0802,0.0801,0.0713,0.0711,0.071,0.0607,0.0605,0.0603,0.0601,0.0417,0.0413,0.0409,0,0,0,0,0,0,0,0,0,0,0,0,0,0.0808,0.0858,0.0803,0.0739,0.0733,0.0713,0.0711,0.071,0.0607,0.0605,0.0603,0.06,0.0419,0.0414,0.0408,0.0421,0,0,0.0392,0.039,0,0,0,0,0,0,0,0,0.0811,0.0806,0.075,0.0744,0.0736,0.0669,0.0663,0.0609,0.0608,0.0654,0.0602,0.0599,0.0494,0.0482,0.0471,0.0413,0.0405,0.0392,0.0389,0.0386,0.0385,0,0,0,0,0,0,0,0.0814,0.0809,0.0767,0.0749,0.074,0.0705,0.0696,0.0652,0.0586,0.065,0.0642,0.0634,0.0489,0.0477,0.0466,0.0402,0.0392,0.0387,0.0384,0.0382,0.0285,0.0286,0,0,0,0,0,0,0.0831,0.0813,0.077,0.0764,0.0769,0.0706,0.0696,0.0692,0.0588,0.0571,0.0636,0.0629,0.0487,0.0472,0.0459,0.0443,0.0386,0.0381,0.0378,0.0285,0.0285,0.0286,0,0,0,0,0,0,0.0832,0.0828,0.0773,0.0786,0.0777,0.0708,0.0705,0.0692,0.0668,0.0578,0.0559,0.0625,0.0484,0.0466,0.0421,0.0435,0.0379,0.0374,0.0284,0.0285,0.0286,0.0427,0,0,0,0,0,0,0.0835,0.083,0.0835,0.0788,0.0777,0.0778,0.0707,0.0692,0.0667,0.0658,0.0563,0.0544,0.0481,0.043,0.0416,0.0427,0.037,0.0283,0.0284,0.0285,0.0421,0.0432,0.0442,0,0,0,0,0,0.0837,0.0857,0.0836,0.0831,0.0786,0.078,0.0772,0.0714,0.0669,0.068,0.0606,0.0546,0.0426,0.0427,0.041,0.042,0.0283,0.0284,0.0285,0.0417,0.043,0.0441,0,0,0,0,0,0,0.088,0.0847,0.0823,0.083,0.0814,0.0762,0.0763,0.0723,0.0676,0.0657,0.0562,0.054,0.0498,0.0445,0.0448,0.0393,0.0341,0.034,0.0447,0.0459,0.0469,0.0492,0.0366,0,0,0,0,0,0.0897,0.0904,0.0868,0.0877,0.0871,0.0819,0.0807,0.0773,0.0724,0.07,0.0625,0.055,0.0496,0.0467,0.0407,0.0392,0.0341,0.0383,0.0393,0.0403,0.0409,0.0359,0.0366,0.029,0.029,0.029,0,0,0.0914,0.0899,0.09,0.0887,0.0865,0.0876,0.0806,0.08,0.0802,0.0688,0.0656,0.058,0.0497,0.047,0.0447,0.0427,0.0399,0.0404,0.0413,0.0414,0.0361,0.0369,0.0375,0.0291,0.0291,0.0291,0,0,0.096,0.0944,0.0964,0.0963,0.0945,0.0921,0.0924,0.0875,0.0845,0.0821,0.0728,0.0674,0.059,0.0539,0.0503,0.0538,0.0449,0.0504,0.0582,0.0535,0.0541,0.0546,0.0505,0.0505,0.0517,0.0517,0.0517,0,0.0975,0.1,0.0972,0.0998,0.1003,0.0948,0.0977,0.0955,0.0892,0.0877,0.0827,0.0701,0.063,0.06,0.0602,0.0564,0.0515,0.0548,0.0551,0.0554,0.0557,0.0513,0.0511,0.0524,0.0523,0.0523,0.0522,0,0.1037,0.1059,0.1077,0.109,0.11,0.1119,0.1092,0.1083,0.1034,0.0997,0.0945,0.0847,0.0767,0.074,0.0679,0.0659,0.0611,0.0567,0.0528,0.0574,0.0524,0.0519,0.0534,0.0532,0.0529,0.0528,0,0,0.105,0.1107,0.111,0.114,0.115,0.1165,0.1188,0.1189,0.1197,0.1123,0.1116,0.1018,0.0938,0.0891,0.08,0.0763,0.0739,0.0676,0.067,0.065,0.0629,0.057,0.0558,0.0688,0.0688,0.0687,0.0593,0,0.1097,0.1172,0.1188,0.1259,0.1292,0.1281,0.1313,0.1309,0.1277,0.1256,0.1162,0.1104,0.1004,0.0951,0.0903,0.077,0.073,0.0769,0.0574,0.0568,0.0522,0.0553,0.0487,0.0394,0.0588,0.0587,0.0587,0,0.1137,0.1188,0.1263,0.1347,0.1361,0.1389,0.1429,0.1453,0.1429,0.1399,0.1333,0.1237,0.1152,0.1059,0.0886,0.0907,0.0778,0.0686,0.068,0.057,0.05,0.0374,0.0378,0.0578,0.0579,0.0579,0.058,0,0.1145,0.1238,0.1302,0.1327,0.1406,0.1432,0.1465,0.1477,0.1499,0.1463,0.1449,0.1343,0.1258,0.111,0.09,0.0882,0.0718,0.0669,0.0504,0.0498,0.0378,0.0362,0.0557,0.0557,0.0557,0.0557,0.0558,0,0.1177,0.1227,0.1305,0.1337,0.1412,0.1459,0.1518,0.1537,0.156,0.1588,0.1495,0.1477,0.1258,0.113,0.095,0.0716,0.0748,0.0522,0.0471,0.0425,0.0415,0.0516,0.0512,0.0554,0.0555,0.0555,0.0556,0,0.1155,0.1213,0.1287,0.138,0.1408,0.1451,0.1541,0.1591,0.1606,0.1633,0.1615,0.155,0.1391,0.118,0.0942,0.0763,0.0565,0.0472,0.0437,0.0384,0.0365,0.037,0.0282,0.028,0.0277,0.0275,0.0273,0,0.1144,0.1178,0.1289,0.1329,0.1361,0.1436,0.1497,0.1578,0.1637,0.1682,0.17,0.1576,0.1508,0.1165,0.0807,0.0491,0.0521,0.025,0.0203,0.0379,0.0338,0.0346,0.0354,0.01,0.0097,0.0095,0.0093,0,0.1107,0.1139,0.1199,0.129,0.1357,0.1456,0.1548,0.1622,0.1723,0.1785,0.1843,0.1805,0.1434,0.1073,0.0632,0.0432,0.0298,0.0189,0.0373,0.0187,0.02,0.0163,0.0177,0.0071,0.0073,0.0075,0.0076,0.0077,0.1045,0.1074,0.115,0.1233,0.1327,0.1455,0.1558,0.1689,0.1833,0.1891,0.1891,0.1765,0.1319,0.0673,0.0384,0.0087,0.0113,-0.0011,-0.0001,0.0011,0.0014,0.0023,-0.0139,-0.0138,-0.0137,-0.0136,-0.0136,0,0.0954,0.1007,0.1091,0.1209,0.1322,0.1378,0.158,0.1711,0.1906,0.1852,0.1865,0.1391,0.098,0.0591,0.0076,-0.0205,-0.0196,-0.0231,-0.0185,-0.0165,-0.0147,-0.0148,-0.0346,-0.0347,-0.0347,-0.0348,0,0,0.0904,0.0948,0.1015,0.1161,0.1255,0.1448,0.1579,0.1758,0.1809,0.1809,0.1639,0.1317,0.0889,0.0439,0.0086,-0.011,-0.0051,-0.0136,0.0044,0.0155,0.0178,-0.0031,-0.0014,0,0,0,0,0]}],[{"header":{"parameterUnit":"m.s-1","parameterCategory":2,"la1":30.2991,"la2":30.254,"lo1":-89.0895,"lo2":-89.0444,"dy":0.0017,"dx":0.0017,"nx":28,"ny":28,"refTime":"2023-07-25T21:00:00:Z","depth":"4","parameterNumber":2,"parameterNumberName":"U-component_of_CURRENTS"},"data":[0,0,0,0,0,0,0,0,0,0,0,0,0,0,0,0,0,0,0,0,0,0,0,0,0,0,0,0,0,0,0,0,0,0,0,0,0,0,0,0,0,0,0,0,0,0,0,0,0,0,0,0,0,0,0,0,0,0,0.0455,0.0455,0,0.0549,0.055,0.0552,0.0671,0.0673,0.0674,0.0675,0.0806,0.0808,0.081,0,0,0,0,0,0,0,0,0,0,0,0,0,0.0406,0.0407,0.0455,0.0455,0.0456,0.0548,0.055,0.0552,0.0671,0.0673,0.0674,0.0676,0.0805,0.0807,0.081,0,0,0,0,0,0,0,0,0,0,0,0,0,0.0461,0.0407,0.0455,0.0523,0.0529,0.0548,0.055,0.0553,0.0671,0.0673,0.0675,0.0677,0.0804,0.0807,0.081,0.0787,0,0,0.082,0.0822,0,0,0,0,0,0,0,0,0.0458,0.0464,0.0512,0.0518,0.0525,0.0596,0.0581,0.0631,0.067,0.0623,0.0675,0.0678,0.0734,0.0743,0.0763,0.0794,0.0799,0.0821,0.0822,0.0824,0.0825,0,0,0,0,0,0,0,0.0454,0.046,0.0498,0.0512,0.052,0.0557,0.0568,0.0591,0.067,0.0627,0.0634,0.0636,0.0739,0.076,0.0767,0.0801,0.082,0.0823,0.0825,0.0827,0.0953,0.0955,0,0,0,0,0,0,0.0427,0.0456,0.0494,0.05,0.049,0.0556,0.0568,0.0575,0.0669,0.0684,0.0634,0.0641,0.0753,0.0763,0.0772,0.0887,0.0824,0.0827,0.0829,0.0952,0.0954,0.0955,0,0,0,0,0,0,0.0426,0.043,0.0491,0.0476,0.0485,0.0554,0.0561,0.0576,0.0652,0.0673,0.069,0.07,0.0755,0.0767,0.0838,0.0888,0.0828,0.0831,0.095,0.0953,0.0955,0.1029,0,0,0,0,0,0,0.0425,0.0429,0.0448,0.0474,0.0485,0.0524,0.0559,0.0576,0.0643,0.0655,0.0734,0.0745,0.0758,0.0833,0.0841,0.0891,0.0834,0.0948,0.0951,0.0954,0.1024,0.1033,0.1041,0,0,0,0,0,0.0423,0.0428,0.0448,0.0454,0.0501,0.0524,0.0535,0.0594,0.0645,0.0674,0.0738,0.0746,0.0856,0.0837,0.0846,0.0898,0.0947,0.095,0.0954,0.1021,0.1031,0.104,0,0,0,0,0,0,0.0426,0.044,0.0464,0.0478,0.051,0.0543,0.0582,0.0621,0.0696,0.0733,0.0764,0.0779,0.0857,0.0862,0.084,0.094,0.0903,0.0908,0.0951,0.0961,0.0969,0.0987,0.0836,0,0,0,0,0,0.0428,0.0441,0.046,0.0481,0.0502,0.0555,0.0584,0.0624,0.0677,0.0717,0.0784,0.0839,0.0866,0.0904,0.0933,0.099,0.0952,0.1027,0.1035,0.1042,0.1062,0.1016,0.1021,0.0966,0.0966,0.0966,0,0,0.0433,0.0446,0.0455,0.0484,0.0526,0.0559,0.0583,0.0641,0.0693,0.0714,0.0845,0.0874,0.0885,0.0951,0.0987,0.0972,0.1038,0.1046,0.1052,0.1069,0.1019,0.1024,0.1029,0.0968,0.0968,0.0967,0,0,0.0452,0.0472,0.0497,0.0521,0.0575,0.0596,0.0622,0.0698,0.0765,0.0864,0.0883,0.0939,0.1031,0.1031,0.1038,0.1103,0.1076,0.1131,0.12,0.1154,0.1158,0.1161,0.1114,0.1112,0.1142,0.1142,0.1142,0,0.0473,0.0499,0.051,0.0546,0.0582,0.0619,0.0672,0.0718,0.0819,0.0882,0.0925,0.1045,0.1059,0.1087,0.1128,0.1122,0.11,0.1162,0.1163,0.1166,0.1167,0.1118,0.1115,0.1146,0.1146,0.1145,0.1145,0,0.0512,0.0542,0.0564,0.0618,0.0654,0.0701,0.0751,0.0834,0.0932,0.0985,0.1095,0.1119,0.1194,0.1197,0.12,0.1224,0.1205,0.117,0.1136,0.1177,0.1123,0.1118,0.1152,0.115,0.1149,0.1148,0,0,0.0525,0.0585,0.0596,0.0648,0.0704,0.0745,0.0828,0.0913,0.0993,0.11,0.12,0.1256,0.1301,0.131,0.1302,0.1277,0.1268,0.1262,0.1258,0.1212,0.1182,0.1123,0.1112,0.1244,0.1244,0.1244,0.1137,0,0.0568,0.0643,0.0665,0.0756,0.0799,0.086,0.093,0.1012,0.1102,0.1201,0.123,0.1318,0.1326,0.1383,0.136,0.1292,0.1263,0.1301,0.1154,0.115,0.1088,0.1107,0.1244,0.1133,0.1132,0.1131,0.1131,0,0.0593,0.0643,0.0749,0.0841,0.0876,0.0955,0.1095,0.116,0.1251,0.1328,0.1405,0.143,0.1446,0.1434,0.135,0.1387,0.1316,0.1244,0.1236,0.1157,0.1083,0.1085,0.1121,0.1122,0.1123,0.1123,0.1124,0,0.0592,0.0692,0.0796,0.0829,0.0942,0.1054,0.1134,0.1237,0.13,0.142,0.1469,0.1498,0.1517,0.1446,0.1334,0.1367,0.1188,0.1192,0.1057,0.1051,0.1102,0.11,0.1115,0.1116,0.1116,0.1116,0.1116,0,0.06,0.0676,0.0833,0.0888,0.1033,0.1116,0.1267,0.1347,0.1437,0.1442,0.1552,0.1492,0.1527,0.1425,0.1334,0.1171,0.1183,0.1078,0.1023,0.1135,0.1138,0.1097,0.1097,0.1112,0.1113,0.1114,0.1114,0,0.0573,0.0667,0.0782,0.0961,0.1038,0.1155,0.1328,0.1385,0.1501,0.1501,0.1539,0.1519,0.1395,0.1362,0.1202,0.1155,0.1001,0.0923,0.1036,0.0987,0.0909,0.0914,0.0826,0.0823,0.0821,0.0819,0.0817,0,0.0567,0.0631,0.0832,0.0908,0.1019,0.1194,0.1272,0.1417,0.1418,0.1408,0.134,0.1309,0.1262,0.1014,0.0974,0.0865,0.0834,0.0813,0.0911,0.0925,0.0881,0.089,0.0897,0.0813,0.0813,0.0812,0.0811,0,0.054,0.0636,0.0724,0.0874,0.1008,0.1103,0.1212,0.1193,0.1251,0.1366,0.1169,0.1119,0.0972,0.0888,0.0852,0.0726,0.0881,0.0788,0.0795,0.0887,0.0908,0.0869,0.0879,0.0803,0.0804,0.0805,0.0805,0,0.0518,0.0565,0.0686,0.0795,0.0922,0.0935,0.1028,0.1011,0.1048,0.1051,0.091,0.0849,0.0862,0.0794,0.0659,0.0665,0.0689,0.0723,0.0734,0.0743,0.0773,0.0791,0.0605,0,0,0,0,0,0.0478,0.0497,0.0584,0.0666,0.0762,0.083,0.0917,0.0975,0.0995,0.0857,0.0922,0.0767,0.0687,0.0611,0.0602,0.0604,0.0674,0.0593,0.0715,0.0756,0.0765,0.0812,0,0,0,0,0,0,0.0447,0.0526,0.0531,0.0508,0.052,0.0607,0.0643,0.0677,0.0619,0.0662,0.0608,0.0731,0.064,0.0665,0.0569,0.0573,0.0646,0.0606,0.0606,0.075,0.0759,0.0767,0.0819,0,0,0,0,0]},{"header":{"parameterUnit":"m.s-1","parameterCategory":2,"la1":30.2991,"la2":30.254,"lo1":-89.0895,"lo2":-89.0444,"dy":0.0017,"dx":0.0017,"nx":28,"ny":28,"refTime":"2023-07-25T21:00:00:Z","depth":"4","parameterNumber":3,"parameterNumberName":"V-component_of_CURRENTS"},"data":[0,0,0,0,0,0,0,0,0,0,0,0,0,0,0,0,0,0,0,0,0,0,0,0,0,0,0,0,0,0,0,0,0,0,0,0,0,0,0,0,0,0,0,0,0,0,0,0,0,0,0,0,0,0,0,0,0,0,0.0056,0.0055,0,-0.0013,-0.0014,-0.0015,-0.004,-0.004,-0.0039,-0.0039,-0.0166,-0.017,-0.0174,0,0,0,0,0,0,0,0,0,0,0,0,0,0.0099,0.0099,0.0056,0.0055,0.0055,-0.0013,-0.0014,-0.0015,-0.0041,-0.004,-0.0039,-0.0039,-0.0165,-0.0169,-0.0174,0,0,0,0,0,0,0,0,0,0,0,0,0,0.0057,0.0099,0.0056,0.0037,0.0035,-0.0013,-0.0014,-0.0016,-0.0041,-0.004,-0.0039,-0.0038,-0.0163,-0.0169,-0.0175,-0.0228,0,0,-0.0192,-0.0195,0,0,0,0,0,0,0,0,0.006,0.0055,0.004,0.0038,0.0036,-0.0014,-0.0045,-0.0088,-0.0041,-0.0016,-0.0039,-0.0038,-0.0119,-0.0128,-0.0147,-0.0234,-0.0239,-0.0193,-0.0197,-0.0199,-0.0201,0,0,0,0,0,0,0,0.0063,0.0058,0.0025,0.004,0.0037,0.0009,0.0004,-0.0054,-0.0075,-0.0018,-0.0019,-0.0021,-0.0121,-0.0142,-0.0151,-0.0241,-0.0193,-0.0198,-0.0202,-0.0204,-0.0413,-0.0415,0,0,0,0,0,0,0.0081,0.0061,0.0027,0.0023,0.0054,0.0008,0.0003,-0.0002,-0.0073,-0.0082,-0.0022,-0.0022,-0.0132,-0.0144,-0.0155,-0.0244,-0.0199,-0.0204,-0.0208,-0.0411,-0.0413,-0.0416,0,0,0,0,0,0,0.0082,0.0078,0.003,0.0043,0.0036,0.0008,0.0002,-0.0004,-0.003,-0.0075,-0.0085,-0.0042,-0.0132,-0.0147,-0.0221,-0.0248,-0.0207,-0.0212,-0.0408,-0.0412,-0.0414,-0.0407,0,0,0,0,0,0,0.0084,0.0079,0.0075,0.0045,0.0036,-0.0002,0.0001,-0.0006,-0.003,-0.0032,-0.0096,-0.0106,-0.0132,-0.0213,-0.0227,-0.0255,-0.0217,-0.0406,-0.041,-0.0413,-0.0405,-0.0409,-0.0413,0,0,0,0,0,0.0085,0.0081,0.0075,0.0071,0.0033,-0.0002,-0.0011,-0.003,-0.0032,-0.005,-0.0098,-0.0104,-0.0247,-0.0219,-0.0236,-0.0266,-0.0404,-0.0409,-0.0413,-0.0403,-0.0408,-0.0413,0,0,0,0,0,0,0.0095,0.0077,0.007,0.006,0.003,-0.0005,-0.0019,-0.0037,-0.0089,-0.0093,-0.0135,-0.015,-0.0226,-0.0254,-0.0222,-0.034,-0.0326,-0.0334,-0.0312,-0.0318,-0.0322,-0.0296,-0.0222,0,0,0,0,0,0.0097,0.0089,0.0062,0.005,0.0039,0.0006,-0.0012,-0.0029,-0.0072,-0.0093,-0.0144,-0.02,-0.026,-0.0292,-0.035,-0.0417,-0.0421,-0.0448,-0.0453,-0.0456,-0.0448,-0.049,-0.0497,-0.0431,-0.0431,-0.043,0,0,0.0098,0.0087,0.0082,0.0052,0.003,0.0002,-0.0004,-0.0034,-0.0066,-0.0102,-0.0172,-0.0223,-0.0283,-0.0356,-0.0391,-0.038,-0.0476,-0.0462,-0.0464,-0.0454,-0.0496,-0.0502,-0.0507,-0.0434,-0.0433,-0.0433,0,0,0.0093,0.0085,0.0075,0.005,0.0019,-0.0004,-0.0014,-0.0063,-0.0091,-0.0163,-0.0197,-0.0263,-0.0357,-0.0402,-0.0435,-0.0503,-0.0501,-0.0525,-0.0523,-0.0565,-0.0569,-0.0574,-0.057,-0.0574,-0.0523,-0.0523,-0.0523,0,0.0095,0.0078,0.0063,0.0042,0.0022,-0.0007,-0.0034,-0.007,-0.0143,-0.0175,-0.0184,-0.0328,-0.0377,-0.0458,-0.0477,-0.0511,-0.0516,-0.0492,-0.0566,-0.0571,-0.0575,-0.0571,-0.0575,-0.0523,-0.0523,-0.0523,-0.0523,0,0.0078,0.0062,0.0053,0.002,-0.0009,-0.0035,-0.0079,-0.0122,-0.016,-0.02,-0.0293,-0.0364,-0.0433,-0.0474,-0.0495,-0.056,-0.0546,-0.0566,-0.0541,-0.0581,-0.0574,-0.0579,-0.0524,-0.0524,-0.0523,-0.0523,0,0,0.0091,0.0051,0.0049,0.0032,-0.0021,-0.0042,-0.01,-0.0158,-0.0186,-0.0269,-0.0321,-0.0428,-0.0445,-0.0484,-0.0525,-0.0572,-0.0604,-0.0574,-0.0577,-0.0548,-0.0659,-0.0597,-0.0595,-0.0633,-0.0634,-0.0635,-0.0634,0,0.0082,0.0058,0.0027,-0.0011,-0.003,-0.0077,-0.0121,-0.0178,-0.0231,-0.0289,-0.0366,-0.0416,-0.0452,-0.0466,-0.0527,-0.0597,-0.0619,-0.0599,-0.0644,-0.0645,-0.0567,-0.0601,-0.0639,-0.0637,-0.0639,-0.0639,-0.064,0,0.0073,0.0059,0.0039,-0.0015,-0.0028,-0.0039,-0.01,-0.0144,-0.0225,-0.0265,-0.0331,-0.0383,-0.0461,-0.0474,-0.059,-0.0574,-0.0601,-0.065,-0.0652,-0.0597,-0.0592,-0.0599,-0.0648,-0.0648,-0.0647,-0.0646,-0.0646,0,0.0106,0.0059,0.0054,0.0037,-0.0019,-0.0023,-0.0044,-0.0115,-0.0136,-0.0209,-0.023,-0.0348,-0.0375,-0.0467,-0.0555,-0.0567,-0.0673,-0.07,-0.0665,-0.0659,-0.0715,-0.0711,-0.0753,-0.0753,-0.0753,-0.0753,-0.0753,0,0.0109,0.0095,0.0093,0.0095,0.0105,0.0044,0.0057,0.0007,-0.0043,-0.0078,-0.017,-0.0226,-0.0374,-0.0459,-0.0544,-0.0611,-0.0651,-0.0659,-0.0663,-0.0711,-0.0707,-0.0716,-0.0712,-0.0753,-0.0753,-0.0753,-0.0753,0,0.0135,0.0129,0.0127,0.0115,0.0136,0.0156,0.0176,0.0164,0.0114,0.0068,0.006,-0.0107,-0.0224,-0.0352,-0.0503,-0.0561,-0.0651,-0.0649,-0.0655,-0.066,-0.0609,-0.0605,-0.0622,-0.062,-0.0618,-0.0616,-0.0615,0,0.0141,0.0154,0.0191,0.0243,0.0261,0.0306,0.0333,0.028,0.0241,0.012,0.0071,-0.0027,-0.0142,-0.0296,-0.0446,-0.0565,-0.0579,-0.0602,-0.0644,-0.0597,-0.06,-0.0598,-0.0597,-0.0612,-0.0612,-0.0612,-0.0611,0,0.0148,0.018,0.0188,0.0328,0.0394,0.0414,0.0427,0.0408,0.0295,0.0272,0.0116,0.0012,-0.0116,-0.0282,-0.0339,-0.0449,-0.0596,-0.0584,-0.059,-0.063,-0.0586,-0.059,-0.0591,-0.0605,-0.0606,-0.0607,-0.0607,0,0.017,0.0195,0.0266,0.0365,0.0484,0.0489,0.0465,0.0402,0.0361,0.0201,0.0152,0.0002,-0.0093,-0.022,-0.0313,-0.0375,-0.0407,-0.044,-0.0453,-0.0461,-0.0425,-0.0346,-0.029,0,0,0,0,0,0.0201,0.0232,0.0311,0.038,0.0501,0.0554,0.0514,0.0445,0.0343,0.0262,0.0208,0.0088,-0.0061,-0.0165,-0.0209,-0.0295,-0.0425,-0.0351,-0.0471,-0.0572,-0.0579,-0.0559,0,0,0,0,0,0,0.0215,0.0294,0.0292,0.0401,0.0479,0.0537,0.0522,0.0405,0.0327,0.0244,0.0164,0.012,-0.0029,0.0009,-0.0184,-0.0214,-0.0293,-0.0422,-0.0423,-0.0568,-0.0574,-0.058,-0.0562,0,0,0,0,0]}]]